This is the latest recevied weather packets stored in our database for station/object YT6PT-8. If no packets are shown the sender has not sent any weather packets the latest 10 day(s).
| Time | Temp. | Humidity | Pressure | Rain* | Wind** | Luminosity | Snow |
|---|---|---|---|---|---|---|---|
| 1787588431 | 22.78° C | 45% | 1009.5 hPa | 0 mm | 0.89 m/s, 68° | - | - |
| 1787588131 | 22.78° C | 45% | 1009.6 hPa | 0 mm | 0.89 m/s, 45° | - | - |
| 1787587831 | 22.78° C | 45% | 1009.6 hPa | 0 mm | 0.89 m/s, 45° | - | - |
| 1787587530 | 22.78° C | 45% | 1009.6 hPa | 0 mm | 1.34 m/s, 68° | - | - |
| 1787586931 | 23.33° C | 44% | 1009.7 hPa | 0 mm | 1.34 m/s, 22° | - | - |
| 1787586630 | 23.33° C | 44% | 1009.7 hPa | 0 mm | 1.34 m/s, 22° | - | - |
| 1787586331 | 23.33° C | 44% | 1009.7 hPa | 0 mm | 0.45 m/s, 68° | - | - |
| 1787586032 | 23.33° C | 44% | 1009.7 hPa | 0 mm | 0.45 m/s, 68° | - | - |
| 1787585754 | 23.33° C | 44% | 1009.7 hPa | 0 mm | 0.89 m/s, 90° | - | - |
| 1787585452 | 23.33° C | 44% | 1009.7 hPa | 0 mm | 0.89 m/s, 90° | - | - |
| 1787585157 | 23.33° C | 44% | 1009.8 hPa | 0 mm | 0.89 m/s, 90° | - | - |
| 1787584838 | 23.33° C | 44% | 1009.8 hPa | 0 mm | 0.89 m/s, 90° | - | - |
| 1787584532 | 23.89° C | 43% | 1010 hPa | 0 mm | 1.34 m/s, 90° | - | - |
| 1787584231 | 23.89° C | 43% | 1010 hPa | 0 mm | 1.34 m/s, 90° | - | - |
| 1787583932 | 24.44° C | 42% | 1010 hPa | 0 mm | 1.34 m/s, 45° | - | - |
| 1787583636 | 24.44° C | 42% | 1010 hPa | 0 mm | 1.34 m/s, 45° | - | - |
| 1787583350 | 24.44° C | 42% | 1009.9 hPa | 0 mm | 0.89 m/s, 45° | - | - |
| 1787583052 | 24.44° C | 42% | 1009.9 hPa | 0 mm | 0.89 m/s, 45° | - | - |
| 1787582749 | 23.89° C | 43% | 1010 hPa | 0 mm | 1.34 m/s, 68° | - | - |
| 1787582458 | 23.89° C | 43% | 1010 hPa | 0 mm | 1.34 m/s, 68° | - | - |
| 1787582159 | 23.89° C | 43% | 1010 hPa | 0 mm | 1.34 m/s, 68° | - | - |
| 1787581830 | 23.89° C | 43% | 1010 hPa | 0 mm | 1.34 m/s, 68° | - | - |
| 1787581531 | 23.89° C | 44% | 1010.1 hPa | 0 mm | 0.89 m/s, 90° | - | - |
| 1787581237 | 23.89° C | 44% | 1010.1 hPa | 0 mm | 0.89 m/s, 90° | - | - |
| 1787580931 | 23.89° C | 43% | 1009.8 hPa | 0 mm | 0.89 m/s, 90° | - | - |
* Rain latest hour (hover to see other rain measurements)
** Current wind speed in m/s (hover to see current wind gust speed)